Location: Bergnershof
(48.9468°N, 10.9431°E)
Time: 14:26:21
(UTC+00:00)

Cosmos 2333 Rocket - Pass Details

Date: 28 June 2021
Orbit: 841 x 861 km, 70.8° (Epoch: 28 July)

Event Time Altitude Azimuth Distance (km) Brightness Sun altitude
Rises 01:57:17 0° 334° (NNW) 3,423 5.8 -9.7°
Reaches altitude 10° 02:01:03 10° 359° (N) 2,480 5.5 -9.3°
Maximum altitude 02:04:03 14° 31° (NNE) 2,180 5.8 -9.0°
Drops below altitude 10° 02:07:02 10° 63° (ENE) 2,470 5.8 -8.7°
Sets 02:10:45 0° 87° (E) 3,399 6.0 -8.3°
